Tracking 19575 objects as of 19-Feb-2019
HD Live streaming from Space Station
objects crossing your sky now

PEASSS

Track PEASSS now!
10-day predictions


NORAD ID: 42015
Int'l Code: 2017-008BV
Perigee: 495.6 km
Apogee: 502.9 km
Inclination: 97.4 °
Period: 94.5 minutes
Semi major axis: 6870 km
RCS: Unknown
Launch date: February 15, 2017
Source: Netherlands (NETH)
Launch site: SRIHARIKOTA (SRI)
aabbcc
Your satellite tracking list
Your tracking list is empty




NASA's NSSDC Master Catalog

Two Line Element Set (TLE):
1 42015U 17008BV  19049.74278530  .00001029  00000-0  44666-4 0  9999
2 42015  97.4171 117.5929 0005307 220.9989 139.0850 15.24567487111470
Source of the keplerian elements: AFSPC